Terminal Aerodrome Forecast
Issued by NWS

Home | Current Version | Previous Version | Graphics & Text | Print | Product List | Glossary On
Versions: 1 2 3 4 5 6 7 8 9 10 11 12 13 14 15 16 17 18
000
FTUS43 KTOP 230700 AAA
TAFMHK
TAF AMD
KMHK 230711Z 2307/2406 13005KT P6SM SCT010 OVC030
     FM230900 13005KT P6SM SHRA SCT015 OVC025
     FM231000 13006KT P6SM SHRA BKN015 OVC025
     FM231200 14009KT 6SM SHRA BR BKN008 OVC015
     FM231700 14011KT P6SM SHRA BKN015 OVC025
     FM232300 12009KT 4SM RA VCTS BKN007CB OVC025=

USA.gov is the U.S. government's official web portal to all federal, state and local government web resources and services.